Time,TemperatureF,DewpointF,PressureIn,WindDirection,WindDirectionDegrees,WindSpeedMPH,WindSpeedGustMPH,Humidity,HourlyPrecipIn,Conditions,Clouds,dailyrainin,SolarRadiationWatts/m^2,SoftwareType,DateUTC
2013-05-28 00:00:00,66.2,58.0,30.11,NNW,339,0.0,1.0,75,0.00,,,0.00,0,weatherlink.com 1.10,2013-05-28 04:00:00,
2013-05-28 00:15:00,66.0,58.0,30.11,NNW,339,0.0,1.0,76,0.00,,,0.00,0,weatherlink.com 1.10,2013-05-28 04:15:00,
2013-05-28 00:30:00,65.8,58.0,30.11,NNW,339,0.0,1.0,77,0.00,,,0.00,0,weatherlink.com 1.10,2013-05-28 04:30:00,
2013-05-28 00:45:00,65.5,58.0,30.12,NNW,339,0.0,2.0,77,0.00,,,0.00,0,weatherlink.com 1.10,2013-05-28 04:45:00,
2013-05-28 01:00:00,65.3,58.0,30.12,NNW,339,0.0,1.0,78,0.00,,,0.00,0,weatherlink.com 1.10,2013-05-28 05:00:00,
2013-05-28 01:15:00,65.2,58.0,30.12,NNW,339,0.0,1.0,78,0.00,,,0.00,0,weatherlink.com 1.10,2013-05-28 05:15:00,
2013-05-28 01:30:00,65.1,58.0,30.11,NNW,339,0.0,1.0,79,0.00,,,0.00,0,weatherlink.com 1.10,2013-05-28 05:30:00,
2013-05-28 01:45:00,65.1,59.0,30.11,NNW,339,0.0,1.0,80,0.00,,,0.00,0,weatherlink.com 1.10,2013-05-28 05:45:00,
2013-05-28 02:00:00,65.4,59.0,30.10,NNW,339,0.0,0.0,79,0.00,,,0.00,0,weatherlink.com 1.10,2013-05-28 06:00:00,
2013-05-28 02:15:00,65.4,59.0,30.09,NNW,339,0.0,0.0,80,0.00,,,0.00,0,weatherlink.com 1.10,2013-05-28 06:15:00,
2013-05-28 02:30:00,65.3,59.0,30.09,NNW,339,0.0,1.0,80,0.00,,,0.00,0,weatherlink.com 1.10,2013-05-28 06:30:00,
2013-05-28 02:45:00,65.2,59.0,30.09,NNW,339,0.0,1.0,80,0.00,,,0.00,0,weatherlink.com 1.10,2013-05-28 06:45:00,
2013-05-28 03:00:00,65.2,59.0,30.08,NNW,339,0.0,2.0,81,0.00,,,0.00,0,weatherlink.com 1.10,2013-05-28 07:00:00,
2013-05-28 03:15:00,65.0,59.0,30.08,NNW,339,0.0,2.0,82,0.00,,,0.00,0,weatherlink.com 1.10,2013-05-28 07:15:00,
2013-05-28 03:30:00,64.9,59.0,30.08,NNW,339,1.0,2.0,82,0.00,,,0.00,0,weatherlink.com 1.10,2013-05-28 07:30:00,
2013-05-28 03:45:00,64.9,59.0,30.08,NNW,339,0.0,2.0,82,0.00,,,0.00,0,weatherlink.com 1.10,2013-05-28 07:45:00,
2013-05-28 04:00:00,65.2,60.0,30.07,NNW,339,0.0,2.0,82,0.00,,,0.00,0,weatherlink.com 1.10,2013-05-28 08:00:00,
2013-05-28 04:15:00,65.1,60.0,30.08,NNW,339,0.0,2.0,82,0.00,,,0.00,0,weatherlink.com 1.10,2013-05-28 08:15:00,
2013-05-28 04:30:00,65.2,59.0,30.07,NNW,339,0.0,1.0,81,0.00,,,0.00,0,weatherlink.com 1.10,2013-05-28 08:30:00,
2013-05-28 04:45:00,65.2,59.0,30.08,NNW,339,0.0,1.0,80,0.00,,,0.00,0,weatherlink.com 1.10,2013-05-28 08:45:00,
2013-05-28 05:00:00,65.4,59.0,30.08,NNW,339,0.0,2.0,79,0.00,,,0.00,0,weatherlink.com 1.10,2013-05-28 09:00:00,
2013-05-28 05:15:00,65.6,59.0,30.09,ESE,121,0.0,2.0,79,0.00,,,0.00,0,weatherlink.com 1.10,2013-05-28 09:15:00,
2013-05-28 05:30:00,65.6,59.0,30.09,ESE,121,1.0,2.0,79,0.00,,,0.00,0,weatherlink.com 1.10,2013-05-28 09:30:00,
2013-05-28 05:45:00,65.5,59.0,30.09,ESE,121,0.0,2.0,79,0.00,,,0.00,0,weatherlink.com 1.10,2013-05-28 09:45:00,
2013-05-28 06:00:00,65.2,59.0,30.10,ESE,121,0.0,0.0,80,0.00,,,0.00,0,weatherlink.com 1.10,2013-05-28 10:00:00,
2013-05-28 06:15:00,65.0,59.0,30.10,ESE,121,0.0,1.0,81,0.00,,,0.00,0,weatherlink.com 1.10,2013-05-28 10:15:00,
2013-05-28 06:31:00,64.1,59.0,30.11,ESE,121,0.0,0.0,83,0.00,,,0.00,0,weatherlink.com 1.10,2013-05-28 10:31:00,
2013-05-28 06:46:00,63.2,59.0,30.11,ESE,121,0.0,0.0,85,0.00,,,0.00,7,weatherlink.com 1.10,2013-05-28 10:46:00,
2013-05-28 07:01:00,63.2,59.0,30.11,ESE,121,0.0,0.0,85,0.00,,,0.00,11,weatherlink.com 1.10,2013-05-28 11:01:00,
2013-05-28 07:16:00,63.5,59.0,30.12,ESE,121,0.0,0.0,86,0.00,,,0.00,18,weatherlink.com 1.10,2013-05-28 11:16:00,
2013-05-28 07:31:00,62.8,59.0,30.13,ESE,121,0.0,1.0,87,0.00,,,0.00,23,weatherlink.com 1.10,2013-05-28 11:31:00,
2013-05-28 07:46:00,62.9,59.0,30.13,ESE,121,0.0,0.0,88,0.00,,,0.00,26,weatherlink.com 1.10,2013-05-28 11:46:00,
2013-05-28 08:01:00,62.9,59.0,30.13,ESE,121,0.0,0.0,88,0.00,,,0.00,32,weatherlink.com 1.10,2013-05-28 12:01:00,
2013-05-28 08:16:00,62.9,60.0,30.13,ESE,121,0.0,0.0,89,0.00,,,0.00,32,weatherlink.com 1.10,2013-05-28 12:16:00,
2013-05-28 08:31:00,64.1,60.0,30.13,ESE,121,0.0,0.0,87,0.00,,,0.00,33,weatherlink.com 1.10,2013-05-28 12:31:00,
2013-05-28 08:46:00,64.7,61.0,30.14,ESE,121,0.0,1.0,87,0.00,,,0.00,47,weatherlink.com 1.10,2013-05-28 12:46:00,
2013-05-28 09:01:00,65.3,61.0,30.14,ESE,121,0.0,0.0,87,0.00,,,0.00,54,weatherlink.com 1.10,2013-05-28 13:01:00,
2013-05-28 09:16:00,65.9,61.0,30.14,ESE,121,0.0,1.0,83,0.00,,,0.00,40,weatherlink.com 1.10,2013-05-28 13:16:00,
2013-05-28 09:31:00,66.7,61.0,30.13,NNE,22,0.0,2.0,82,0.00,,,0.00,40,weatherlink.com 1.10,2013-05-28 13:31:00,
2013-05-28 09:46:00,68.2,61.0,30.14,NW,311,0.0,3.0,79,0.00,,,0.00,44,weatherlink.com 1.10,2013-05-28 13:46:00,
2013-05-28 10:01:00,68.6,61.0,30.13,WNW,298,2.0,2.0,77,0.00,,,0.00,49,weatherlink.com 1.10,2013-05-28 14:01:00,
2013-05-28 10:16:00,69.4,62.0,30.13,WNW,298,0.0,1.0,78,0.00,,,0.00,72,weatherlink.com 1.10,2013-05-28 14:16:00,
2013-05-28 10:31:00,69.9,62.0,30.13,WNW,298,0.0,1.0,75,0.00,,,0.00,69,weatherlink.com 1.10,2013-05-28 14:31:00,
2013-05-28 10:46:00,70.3,61.0,30.13,WNW,298,0.0,0.0,73,0.00,,,0.00,70,weatherlink.com 1.10,2013-05-28 14:46:00,
2013-05-28 11:01:00,71.3,61.0,30.12,WNW,298,0.0,3.0,70,0.00,,,0.00,163,weatherlink.com 1.10,2013-05-28 15:01:00,
2013-05-28 11:16:00,72.5,63.0,30.12,WNW,298,0.0,1.0,71,0.00,,,0.00,148,weatherlink.com 1.10,2013-05-28 15:16:00,
2013-05-28 11:31:00,73.6,62.0,30.12,ENE,59,0.0,2.0,67,0.00,,,0.00,160,weatherlink.com 1.10,2013-05-28 15:31:00,
2013-05-28 11:46:00,74.4,61.0,30.11,South,181,1.0,2.0,64,0.00,,,0.00,260,weatherlink.com 1.10,2013-05-28 15:46:00,
2013-05-28 12:01:00,75.6,61.0,30.12,WNW,300,4.0,6.0,61,0.00,,,0.00,251,weatherlink.com 1.10,2013-05-28 16:01:00,
2013-05-28 12:31:00,76.9,61.0,30.11,WNW,287,0.0,4.0,59,0.00,,,0.00,190,weatherlink.com 1.10,2013-05-28 16:31:00,
2013-05-28 12:47:00,77.4,61.0,30.10,NE,47,1.0,8.0,58,0.00,,,0.00,974,weatherlink.com 1.10,2013-05-28 16:47:00,
2013-05-28 13:02:00,79.1,60.0,30.09,NW,310,1.0,6.0,53,0.00,,,0.00,998,weatherlink.com 1.10,2013-05-28 17:02:00,
2013-05-28 13:17:00,79.6,65.0,30.09,WNW,294,3.0,6.0,61,0.00,,,0.00,963,weatherlink.com 1.10,2013-05-28 17:17:00,
2013-05-28 13:32:00,79.0,62.0,30.08,NNW,333,4.0,5.0,56,0.00,,,0.00,422,weatherlink.com 1.10,2013-05-28 17:32:00,
2013-05-28 13:47:00,78.4,62.0,30.08,NNW,333,0.0,4.0,57,0.00,,,0.00,285,weatherlink.com 1.10,2013-05-28 17:47:00,
2013-05-28 14:02:00,79.4,60.0,30.08,NW,305,1.0,7.0,51,0.00,,,0.00,232,weatherlink.com 1.10,2013-05-28 18:02:00,
2013-05-28 14:17:00,80.6,61.0,30.07,NW,319,1.0,4.0,52,0.00,,,0.00,1079,weatherlink.com 1.10,2013-05-28 18:17:00,
2013-05-28 14:32:00,80.5,61.0,30.06,NNW,338,2.0,4.0,51,0.00,,,0.00,1081,weatherlink.com 1.10,2013-05-28 18:32:00,
2013-05-28 14:47:00,80.9,57.0,30.07,NW,304,3.0,6.0,44,0.00,,,0.00,962,weatherlink.com 1.10,2013-05-28 18:47:00,
2013-05-28 15:02:00,81.1,59.0,30.07,SW,227,2.0,6.0,47,0.00,,,0.00,977,weatherlink.com 1.10,2013-05-28 19:02:00,
2013-05-28 15:17:00,81.3,59.0,30.06,WNW,285,2.0,5.0,46,0.00,,,0.00,1099,weatherlink.com 1.10,2013-05-28 19:17:00,
2013-05-28 15:32:00,82.1,57.0,30.07,South,175,1.0,7.0,42,0.00,,,0.00,988,weatherlink.com 1.10,2013-05-28 19:32:00,
2013-05-28 15:47:00,82.7,59.0,30.06,WNW,290,2.0,4.0,45,0.00,,,0.00,891,weatherlink.com 1.10,2013-05-28 19:47:00,
2013-05-28 16:02:00,82.5,59.0,30.06,NW,323,1.0,5.0,45,0.00,,,0.00,891,weatherlink.com 1.10,2013-05-28 20:02:00,
2013-05-28 16:17:00,82.2,57.0,30.07,NW,311,1.0,6.0,43,0.00,,,0.00,851,weatherlink.com 1.10,2013-05-28 20:17:00,
2013-05-28 16:32:00,81.6,59.0,30.07,NW,315,0.0,4.0,47,0.00,,,0.00,795,weatherlink.com 1.10,2013-05-28 20:32:00,
2013-05-28 16:47:00,81.9,59.0,30.07,NW,315,0.0,4.0,46,0.00,,,0.00,118,weatherlink.com 1.10,2013-05-28 20:47:00,
2013-05-28 17:02:00,81.3,62.0,30.06,NW,304,0.0,4.0,52,0.00,,,0.00,714,weatherlink.com 1.10,2013-05-28 21:02:00,
2013-05-28 17:17:00,81.3,62.0,30.07,NNW,328,0.0,3.0,53,0.00,,,0.00,111,weatherlink.com 1.10,2013-05-28 21:17:00,
2013-05-28 17:32:00,80.9,62.0,30.06,NNW,328,0.0,1.0,53,0.00,,,0.00,603,weatherlink.com 1.10,2013-05-28 21:32:00,
2013-05-28 17:47:00,81.7,61.0,30.06,SW,229,2.0,4.0,49,0.00,,,0.00,557,weatherlink.com 1.10,2013-05-28 21:47:00,
2013-05-28 18:02:00,81.5,59.0,30.05,NW,305,0.0,4.0,46,0.00,,,0.00,432,weatherlink.com 1.10,2013-05-28 22:02:00,
2013-05-28 18:17:00,81.3,59.0,30.05,NW,305,0.0,3.0,47,0.00,,,0.00,436,weatherlink.com 1.10,2013-05-28 22:17:00,
2013-05-28 18:32:00,80.8,61.0,30.05,NW,319,0.0,3.0,51,0.00,,,0.00,383,weatherlink.com 1.10,2013-05-28 22:32:00,
2013-05-28 18:47:00,80.4,60.0,30.05,NW,319,0.0,4.0,50,0.00,,,0.00,334,weatherlink.com 1.10,2013-05-28 22:47:00,
2013-05-28 19:02:00,80.2,61.0,30.05,NW,319,0.0,0.0,53,0.00,,,0.00,278,weatherlink.com 1.10,2013-05-28 23:02:00,
2013-05-28 19:17:00,80.4,62.0,30.06,NNW,333,0.0,2.0,53,0.00,,,0.00,179,weatherlink.com 1.10,2013-05-28 23:17:00,
2013-05-28 19:32:00,79.7,60.0,30.06,NNW,333,1.0,2.0,51,0.00,,,0.00,158,weatherlink.com 1.10,2013-05-28 23:32:00,
2013-05-28 19:47:00,80.0,61.0,30.07,NNW,333,0.0,0.0,52,0.00,,,0.00,102,weatherlink.com 1.10,2013-05-28 23:47:00,
2013-05-28 20:02:00,79.0,61.0,30.07,NNW,333,0.0,2.0,55,0.00,,,0.00,56,weatherlink.com 1.10,2013-05-29 00:02:00,
2013-05-28 20:17:00,77.4,61.0,30.07,NNW,333,0.0,0.0,58,0.00,,,0.00,19,weatherlink.com 1.10,2013-05-29 00:17:00,
2013-05-28 20:32:00,75.7,61.0,30.07,NNW,333,0.0,1.0,60,0.00,,,0.00,9,weatherlink.com 1.10,2013-05-29 00:32:00,
2013-05-28 20:47:00,73.5,60.0,30.06,NNW,333,0.0,1.0,63,0.00,,,0.00,0,weatherlink.com 1.10,2013-05-29 00:47:00,
2013-05-28 21:02:00,71.7,59.0,30.06,SSW,198,1.0,3.0,65,0.00,,,0.00,0,weatherlink.com 1.10,2013-05-29 01:02:00,
2013-05-28 21:17:00,70.6,60.0,30.06,SSW,198,0.0,1.0,68,0.00,,,0.00,0,weatherlink.com 1.10,2013-05-29 01:17:00,
2013-05-28 21:32:00,69.6,60.0,30.06,SSW,198,0.0,1.0,71,0.00,,,0.00,0,weatherlink.com 1.10,2013-05-29 01:32:00,
2013-05-28 21:47:00,68.8,59.0,30.07,SSW,198,0.0,2.0,72,0.00,,,0.00,0,weatherlink.com 1.10,2013-05-29 01:47:00,
2013-05-28 22:02:00,68.0,59.0,30.08,SSW,198,1.0,2.0,74,0.00,,,0.00,0,weatherlink.com 1.10,2013-05-29 02:02:00,
2013-05-28 22:17:00,67.6,59.0,30.09,SSW,198,1.0,2.0,75,0.00,,,0.00,0,weatherlink.com 1.10,2013-05-29 02:17:00,
2013-05-28 22:32:00,67.6,60.0,30.09,SSW,198,0.0,1.0,76,0.00,,,0.00,0,weatherlink.com 1.10,2013-05-29 02:32:00,
2013-05-28 22:47:00,67.5,60.0,30.08,SSW,198,0.0,0.0,76,0.00,,,0.00,0,weatherlink.com 1.10,2013-05-29 02:47:00,
2013-05-28 23:02:00,67.0,60.0,30.08,SSW,198,1.0,2.0,78,0.00,,,0.00,0,weatherlink.com 1.10,2013-05-29 03:02:00,
2013-05-28 23:17:00,66.4,60.0,30.09,SSW,198,1.0,1.0,80,0.00,,,0.00,0,weatherlink.com 1.10,2013-05-29 03:17:00,
2013-05-28 23:32:00,66.2,60.0,30.09,SSW,198,0.0,2.0,80,0.00,,,0.00,0,weatherlink.com 1.10,2013-05-29 03:32:00,
2013-05-28 23:47:00,66.1,60.0,30.09,SSW,198,0.0,1.0,81,0.00,,,0.00,0,weatherlink.com 1.10,2013-05-29 03:47:00,